Regional Weather Roundup
Issued by NWS Memphis, TN

Home | Current Version | Previous Version | Text Only | Print | Product List | Glossary On
Versions: 1 2 3 4 5 6 7 8 9 10 11 12 13 14 15 16 17 18 19 20 21 22 23 24 25 26 27 28 29 30 31 32 33 34 35 36 37 38 39 40 41 42 43 44 45 46 47 48 49 50
000
ASUS44 KMEG 102100
RWRMEG
MEMPHIS CWA HOURLY WEATHER ROUNDUP
NATIONAL WEATHER SERVICE MEMPHIS TN
300 PM CST WED FEB 10 2016

...WEST TENNESSEE...

CITY           SKY/WX    TMP DP  RH WIND       PRES   REMARKS
MEMPHIS INTL   MOSUNNY   42  13  30 SW10      30.16F
NWS MEMPHIS      N/A     39 N/A N/A MISG        N/A
JACKSON        CLOUDY    31   8  38 SW5       30.17F WCI  26
DYERSBURG      CLOUDY    34   9  35 SW7       30.20F WCI  28
UNION CITY     CLOUDY    27  10  50 SW6       30.15F WCI  20
PARIS          CLOUDY    25  10  54 SW5       30.16S WCI  19


...EASTERN ARKANSAS...

CITY           SKY/WX    TMP DP  RH WIND       PRES   REMARKS
JONESBORO      SUNNY     36  11  35 S10       30.14F WCI  28
WEST MEMPHIS   SUNNY     41  15  35 VRB6      30.15F
BATESVILLE     SUNNY     46  16  29 SW13      30.11F
WALNUT RIDGE   SUNNY     39  10  30 SW9       30.12F WCI  33
BLYTHEVILLE    SUNNY     39  10  30 SW10      30.16F WCI  32
SEARCY         SUNNY     47  17  30 SW6       30.15F
STUTTGART      SUNNY     46  18  31 S7        30.17F
PINE BLUFF     SUNNY     52  19  27 SW12      30.16F
MONTICELLO     SUNNY     53  19  26 SW12G21   30.17F


...NORTH MISSISSIPPI...

CITY           SKY/WX    TMP DP  RH WIND       PRES   REMARKS
TUPELO         CLOUDY    44   6  21 VRB6      30.17F
OLIVE BRANCH   MOSUNNY   37  12  35 S9        30.17F WCI  31
TUNICA         SUNNY     41  18  38 SW10      30.19F
GREENWOOD      SUNNY     46  15  28 W8        30.22F
STARKVILLE     FAIR      46  14  27 W5        30.18F
GOLDEN TRIANGL SUNNY     46  12  25 W5        30.19F


...SOUTHEAST MISSOURI...

CITY           SKY/WX    TMP DP  RH WIND       PRES   REMARKS
WEST PLAINS    SUNNY     40  13  33 S9        30.04F WCI  34
POPLAR BLUFF   PTSUNNY   31  12  45 SW3       30.14F
CAPE GIRARDEAU LGT SNOW  24  18  77 SW8       30.16F WCI  15


...NORTHWEST ALABAMA...

CITY           SKY/WX    TMP DP  RH WIND       PRES   REMARKS
MUSCLE SHOALS  CLOUDY    36   6  28 W8        30.18S WCI  30


...MIDDLE TENNESSEE...

CITY           SKY/WX    TMP DP  RH WIND       PRES   REMARKS
NASHVILLE      CLOUDY    30   8  39 W9        30.16S WCI  22
CLARKSVILLE    CLOUDY    27   9  46 W12       30.15S WCI  17
COLUMBIA       SUNNY     30  10  43 W7        30.15R WCI  23


...WESTERN KENTUCKY...

CITY           SKY/WX    TMP DP  RH WIND       PRES   REMARKS
PADUCAH        LGT SNOW  24  17  74 W8        30.16F WCI  15
FORT CAMPBELL  CLOUDY    26  10  49 W12       30.13F WCI  16


...CENTRAL ARKANSAS...

CITY           SKY/WX    TMP DP  RH WIND       PRES   REMARKS
LITTLE ROCK    SUNNY     52  18  26 W15       30.13F


SKY/WX REPORTED AS FAIR MEANS FEW OR NO CLOUDS BELOW
12 THOUSAND FEET.




USA.gov is the U.S. government's official web portal to all federal, state and local government web resources and services.